Back to catalog

USA 264 DEB

AliveLEO
NORAD 40981·DEBRIS·🇺🇸 United States

Launched Oct 8, 2015 from Vandenberg Space Force Base

Loading…

Next Passes (next 24 hours)

TLE

StaleSource: Mike McCants

Epoch: Sep 7, 2026, 00:56 UTC

1 40981U 15058R   26250.03905619 0.00000000  00000-0  00000-0 0    02
2 40981  63.4366 225.5830 0222196 358.1850   1.8150 13.41000965    03

Track USA 264 DEB in real time with AllMySat

Download on the App Store